This is the latest recevied weather packets stored in our database for station/object DK9XR-14. If no packets are shown the sender has not sent any weather packets the latest 10 day(s).
| Time | Temp. | Humidity | Pressure | Rain* | Wind** | Luminosity | Snow |
|---|---|---|---|---|---|---|---|
| 1777641402 | 20.56° C | 28% | 1026.2 hPa | 0 mm | - | - | - |
| 1777641100 | 21.11° C | 27% | 1026.1 hPa | 0 mm | - | - | - |
| 1777640798 | 20.56° C | 28% | 1026.3 hPa | 0 mm | - | - | - |
| 1777640499 | 20.56° C | 29% | 1026.2 hPa | 0 mm | - | - | - |
| 1777640199 | 20.56° C | 28% | 1026.3 hPa | 0 mm | - | - | - |
| 1777639900 | 20.56° C | 28% | 1026.3 hPa | 0 mm | - | - | - |
| 1777639598 | 20.56° C | 29% | 1026.3 hPa | 0 mm | - | - | - |
| 1777639297 | 20.56° C | 29% | 1026.4 hPa | 0 mm | - | - | - |
| 1777638995 | 20° C | 29% | 1026.5 hPa | 0 mm | - | - | - |
| 1777638696 | 20° C | 29% | 1026.5 hPa | 0 mm | - | - | - |
| 1777638393 | 20° C | 28% | 1026.6 hPa | 0 mm | - | - | - |
| 1777638094 | 20° C | 29% | 1026.6 hPa | 0 mm | - | - | - |
| 1777637793 | 20° C | 29% | 1026.6 hPa | 0 mm | - | - | - |
| 1777637491 | 19.44° C | 29% | 1026.7 hPa | 0 mm | - | - | - |
| 1777637192 | 19.44° C | 29% | 1026.8 hPa | 0 mm | - | - | - |
| 1777636892 | 20° C | 29% | 1026.8 hPa | 0 mm | - | - | - |
| 1777636591 | 19.44° C | 29% | 1026.8 hPa | 0 mm | - | - | - |
| 1777636291 | 19.44° C | 31% | 1026.8 hPa | 0 mm | - | - | - |
| 1777635991 | 19.44° C | 31% | 1026.8 hPa | 0 mm | - | - | - |
| 1777635690 | 18.89° C | 30% | 1026.9 hPa | 0 mm | - | - | - |
| 1777635390 | 18.89° C | 29% | 1026.9 hPa | 0 mm | - | - | - |
| 1777635089 | 18.89° C | 29% | 1026.8 hPa | 0 mm | - | - | - |
| 1777634791 | 18.89° C | 31% | 1027 hPa | 0 mm | - | - | - |
| 1777634491 | 18.33° C | 29% | 1027.1 hPa | 0 mm | - | - | - |
| 1777634187 | 18.33° C | 30% | 1027.4 hPa | 0 mm | - | - | - |
* Rain latest hour (hover to see other rain measurements)
** Current wind speed in m/s (hover to see current wind gust speed)